Regional Weather Roundup
Issued by NWS

Home | Current Version | Previous Version | Graphics & Text | Print | Product List | Glossary On
Versions: 1 2 3 4 5 6 7 8 9 10 11 12 13 14 15 16 17 18 19 20 21 22 23 24 25 26 27 28 29 30 31 32 33 34 35 36 37 38 39 40 41 42 43 44 45 46 47 48 49 50
000
ASUS43 KIND 240509
RWRIN

WEATHER ROUNDUP FOR INDIANA
NATIONAL WEATHER SERVICE INDIANAPOLIS IN
100 AM EDT THU AUG 24 2017

NOTE: "FAIR" INDICATES FEW OR NO CLOUDS BELOW 12,000 FEET WITH NO
SIGNIFICANT WEATHER AND/OR OBSTRUCTIONS TO VISIBILITY.

* - STATION DOES NOT REPORT WEATHER SUCH AS PRECIPITATION OR FOG.

+ - STATION NOT QUALITY CONTROLLED BY THE NATIONAL WEATHER SERVICE.
    USE DATA WITH CAUTION...ESPECIALLY DEWPOINT AND RELATIVE
    HUMIDITY OBSERVATIONS.

INZ001>003-010>013-019-020-240600-
NORTHWEST INDIANA

CITY           SKY/WX    TMP DP  RH WIND       PRES   REMARKS
GARY /AIRPORT/ CLEAR     56  53  89 CALM      30.05R
KNOX *+        MOCLDY    54  54 100 CALM      30.04S
LA PORTE +     CLEAR     54  53  95 CALM      30.05R
MICHIGAN CITY+ CLEAR     54  54 100 CALM      30.05S
MONTICELLO +   PTCLDY    60  58  94 CALM      30.03S
RENSSELAER +   PTCLDY    55  52  88 CALM      30.04S
VALPARAISO     PTCLDY    58  55  90 CALM      30.05R

$$

LMZ046-743>745-240600-
SOUTHERN LAKE MICHIGAN

STATION/POSITION TIME  TEMP    WIND        PRES    WAVE
                       AIR SEA DIR/SP/G            HT
                 (UTC) (F)     (DEG/KT/KT) (MB)    (FT)
BURNS HARBOR     0440   64     190/  3/  5 1017.6S
MICHIGAN CITY    0440   62     140/  4/  5   N/A
5NW MICH CITY    0500   67 74  150/  6/  8   N/A     2

$$

INZ004-005-014>016-021>024-240600-
NORTH CENTRAL INDIANA

CITY           SKY/WX    TMP DP  RH WIND       PRES   REMARKS
GOSHEN         CLEAR     53  49  86 CALM      30.04R
LOGANSPORT +   MOCLDY    59  55  88 CALM      30.05R
PERU/GRISSOM   MOCLDY    60  56  85 NE3       30.03S
ROCHESTER +    CLOUDY    61  55  82 CALM      30.05R
SOUTH BEND     CLEAR     54  53  97 CALM      30.05R
WARSAW +       CLEAR     54  52  94 CALM      30.04S

$$

INZ006>009-017-018-025>027-240600-
NORTHEAST INDIANA

CITY           SKY/WX    TMP DP  RH WIND       PRES   REMARKS
AUBURN +       CLEAR     54  50  87 N3        30.04S
FORT WAYNE     PTCLDY    56  50  80 CALM      30.04R
HUNTINGTON +   CLEAR     56  53  89 CALM      30.04R
KENDALLVILLE + CLEAR     54  51  90 CALM      30.05R

$$

INZ028-029-035-036-043>045-051>053-240600-
WEST CENTRAL INDIANA

CITY           SKY/WX    TMP DP  RH WIND       PRES   REMARKS
GREENCASTLE +  CLEAR     54  54 100 CALM      30.05R
LAFAYETTE      CLEAR     58  58 100 CALM      30.04R
TERRE HAUTE    CLEAR     57  54  89 CALM      30.04S

$$

INZ030>032-037>040-046>048-054>057-064-065-240600-
CENTRAL INDIANA

CITY           SKY/WX    TMP DP  RH WIND       PRES   REMARKS
CP ATTERBURY + CLEAR     55  54  94 CALM      30.04S
FRANKFORT +    PTCLDY    58  57  95 CALM      30.06R
GREENWOOD *+   CLEAR     77  77 100 CALM      30.04S
INDIANAPOLIS   PTCLDY    62  53  72 N7        30.03R
-EAGLE CREEK   CLEAR     65  55  70 N5        30.03R
KOKOMO +       PTCLDY    59  57  93 CALM      30.05R
MARION +       PTCLDY    59  54  82 N3        30.04S
MT COMFORT *+  CLEAR     55  54  94 CALM      30.04S
SHELBYVILLE    CLEAR     56  52  86 CALM      30.03R
ZIONSVILLE +   CLEAR     54  53  95 CALM      30.05S

$$

INZ033-034-041-042-049-050-058-059-240600-
EAST CENTRAL INDIANA

CITY           SKY/WX    TMP DP  RH WIND       PRES   REMARKS
MUNCIE         CLEAR     55  52  89 CALM      30.04R
RICHMOND +     RAIN      59  52  77 CALM      30.05S

$$

INZ060-061-067>069-081>083-085>088-240600-
SOUTHWEST INDIANA

CITY           SKY/WX    TMP DP  RH WIND       PRES   REMARKS
EVANSVILLE     CLEAR     61  56  83 SW5       30.04R
HUNTINGBURG +  CLEAR     59  56  89 CALM      30.04S
WASHINGTON +   CLEAR     57  56  94 MISG      30.04R

$$

INZ062-063-066-070>080-084-089>092-240600-
SOUTH CENTRAL AND SOUTHEAST INDIANA

CITY           SKY/WX    TMP DP  RH WIND       PRES   REMARKS
BEDFORD +      CLEAR     57  54  88 CALM      30.04R
BLOOMINGTON    CLEAR     54  51  90 CALM      30.04S
MADISON *+     CLEAR     57  55  94 CALM      30.05S
NORTH VERNON + CLEAR     55  54  94 CALM      30.04S
SEYMOUR +      CLEAR     57  54  88 CALM      30.03S

$$




USA.gov is the U.S. government's official web portal to all federal, state and local government web resources and services.